User: anonymous   Login
Location: Unspecified
(0.0000°N, 0.0000°E)
Time: 15:57:21
(UTC+01:00)
Language:

JASON 2 - Orbit

View from above orbital plane
View from above orbital plane
View from above satellite
View from above satellite

Ground track
Ground track

The orbit data is extracted from the following two-line orbital elements,

1 33105U 08032A   18052.95152899 -.00000054 +00000-0 +32708-4 0  9993
2 33105 066.0417 316.9825 0007692 273.7900 165.3134 12.87627890452682
Epoch (UTC): 21 February 2018 22:50:12
Eccentricity: 0.0007692
inclination: 66.0417°
perigee height: 1305 km
apogee height: 1317 km
right ascension of ascending node: 316.9825°
argument of perigee: 273.7900°
revolutions per day: 12.87627890
mean anomaly at epoch: 165.3134°
orbit number at epoch: 45268

The dashed part of the orbit path shows where the satellite is in the earth's shadow,  

DLR